User: anonymous   Login
Location: West Cummington
(42.4920°N, 72.9680°W)
Time: 17:01:53
(UTC-05:00)
Language:

Cosmos 841 Rocket - Orbit

View from above orbital plane
View from above orbital plane
View from above satellite
View from above satellite

Ground track
Ground track

The orbit data is extracted from the following two-line orbital elements,

1 09023U 76069B   18017.22414586 -.00000000  00000-0  83423-5 0  9997
2 09023  74.0430  61.7463 0017505 178.9923 181.1271 14.39568036175625
Epoch (UTC): 17 January 2018 05:22:46
Eccentricity: 0.0017505
inclination: 74.0430°
perigee height: 747 km
apogee height: 772 km
right ascension of ascending node: 61.7463°
argument of perigee: 178.9923°
revolutions per day: 14.39568036
mean anomaly at epoch: 181.1271°
orbit number at epoch: 17562

The dashed part of the orbit path shows where the satellite is in the earth's shadow,  

DLR